Location: ??????
(36.0418°N, 43.6351°E)
Time: 18:31:30
(UTC+00:00)

Lacrosse 5 - Visible Passes

Search period start: 16 June 2021 00:00
Search period end: 26 June 2021 00:00
Orbit: 715 x 724 km, 57.0° (Epoch: 13 June)

Date Brightness Start Highest point End Pass type
(mag) Time Alt. Az. Time Alt. Az. Time Alt. Az.
16 Jun 2.7 17:49:55 10° NNW 17:54:43 41° NE 17:57:42 21° ESE visible
16 Jun 3.3 19:33:13 10° WNW 19:36:54 27° WSW 19:36:54 27° WSW visible
17 Jun 3.4 16:57:09 10° NNW 17:01:18 25° NE 17:05:26 10° E visible
17 Jun 2.2 18:39:35 10° NW 18:44:32 56° SW 18:45:39 45° S visible
18 Jun 1.9 17:46:22 10° NW 17:51:27 76° NE 17:54:28 24° SE visible
18 Jun 4.1 19:31:17 10° W 19:33:40 14° WSW 19:33:40 14° WSW visible
19 Jun 2.7 16:53:25 10° NNW 16:58:12 41° NE 17:02:58 10° ESE visible
19 Jun 3.2 18:36:42 10° WNW 18:40:59 28° WSW 18:42:33 24° SSW visible
20 Jun 2.3 17:43:04 10° NW 17:48:02 56° SW 17:51:29 19° SSE visible
21 Jun 1.9 16:49:51 10° NW 16:54:56 75° NE 17:00:00 10° SE visible
21 Jun 4.1 18:34:43 10° W 18:37:19 14° WSW 18:39:41 11° SW visible
22 Jun 3.4 17:40:10 10° WNW 17:44:29 29° WSW 17:48:45 10° S visible
24 Jun 4.3 17:38:10 10° W 17:40:48 14° WSW 17:43:26 10° SSW visible
